Weather History for Lucknow, India

Change the Weather History Date:

Wednesday, December 5, 2012

  Actual Average Record
Temperature  
Mean Temperature 64 °F -  
Max Temperature 79 °F 68 °F 84 °F (2006)
Min Temperature 49 °F 50 °F 44 °F (2013)
Degree Days  
Heating Degree Days 1    
Growing Degree Days 14 (Base 50)    
Moisture  
Dew Point 44 °F    
Average Humidity 50    
Maximum Humidity 87    
Minimum Humidity 16    
Precipitation  
Precipitation 0.00 in - - ()
Sea Level Pressure  
Sea Level Pressure 29.94 in    
Wind  
Wind Speed 5 mph ()    
Max Wind Speed 9 mph    
Max Gust Speed -    
Visibility 1.8 miles    
Events      
Averages and records for this station are not official NWS values.
T = Trace of Precipitation, MM = Missing Value Source: Averaged Metar Reports

Daily Weather History Graph

Daily Weather History Graph

Search for Another Location

Airport:

Trip Planner

Search our weather history database for the weather conditions in past years. The results will help you decide how hot, cold, wet, or windy it might be!

Date:

Astronomy

Dec. 05, 2012 Rise Set
Actual Time 6:40 AM IST 5:13 PM IST
Civil Twilight 6:15 AM IST 5:38 PM IST
Nautical Twilight 5:46 AM IST 6:07 PM IST
Astronomical Twilight 5:18 AM IST 6:35 PM IST
Moon 11:08 PM IST (12/5) 11:12 AM IST (12/5)
Length of Visible Light 11h 22m
Length of Day
10h 32m
Waning Gibbous, 64% of the Moon is Illuminated
Dec 5
Waning Gibbous
Dec 6
Last Quarter
Dec 13
New
Dec 20
First Quarter
Dec 28
Full

Hourly Weather History & Observations

Time (IST) Temp. Dew Point Humidity Pressure Visibility Wind Dir Wind Speed Gust Speed Precip Events Conditions
12:00 AM 59.0 °F 44.6 °F 59% 29.95 in 1.6 mi West 3.5 mph - N/A   Haze
1:00 AM 57.2 °F 44.6 °F 63% 29.92 in 1.6 mi West 3.5 mph - N/A   Haze
2:00 AM 55.4 °F 44.6 °F 67% 29.92 in 1.6 mi West 4.6 mph - N/A   Haze
2:30 AM 54 °F 45 °F 62% 29.94 in 1 mi West 3.5 mph - -   Haze
4:00 AM 53.6 °F 44.6 °F 72% 29.89 in 1.2 mi West 4.6 mph - N/A   Mist
5:00 AM 53.6 °F 44.6 °F 72% 29.89 in 1.2 mi WSW 3.5 mph - N/A   Mist
5:30 AM 49 °F 43 °F 74% 29.95 in 1 mi 2.3 mph - -   Mist
5:30 AM 50.0 °F 46.4 °F 87% 29.92 in 1.2 mi Variable 2.3 mph - N/A   Mist
6:30 AM 50.0 °F 42.8 °F 76% 29.92 in 0.9 mi WSW 3.5 mph - N/A   Mist
7:00 AM 50.0 °F 42.8 °F 76% 29.92 in 0.9 mi WSW 4.6 mph - N/A   Mist
7:30 AM 51.8 °F 44.6 °F 76% 29.95 in 0.9 mi SW 4.6 mph - N/A   Scattered Clouds
8:00 AM 55.4 °F 44.6 °F 67% 29.95 in 0.9 mi West 4.6 mph - N/A   Scattered Clouds
8:30 AM 57.2 °F 44.6 °F 63% 29.98 in 1.1 mi West 6.9 mph - N/A   Haze
9:00 AM 59.0 °F 44.6 °F 59% 29.98 in 1.2 mi West 9.2 mph - N/A   Haze
9:30 AM 62.6 °F 44.6 °F 52% 29.98 in 1.2 mi WNW 9.2 mph - N/A   Haze
10:00 AM 66.2 °F 44.6 °F 46% 30.01 in 1.6 mi WNW 9.2 mph - N/A   Haze
10:30 AM 68.0 °F 44.6 °F 43% 30.01 in 1.6 mi WNW 9.2 mph - N/A   Haze
11:30 AM 71 °F 44 °F 26% 30.01 in 2 mi WNW 9.2 mph - -   Haze
11:30 AM 69.8 °F 44.6 °F 40% 29.98 in 2.5 mi WNW 9.2 mph - N/A   Haze
12:00 PM 71.6 °F 44.6 °F 38% 29.98 in 2.5 mi WNW 9.2 mph - N/A   Haze
12:30 PM 71.6 °F 42.8 °F 35% 29.95 in 2.5 mi WNW 9.2 mph - N/A   Haze
1:30 PM 75.2 °F 42.8 °F 31% 29.92 in 2.5 mi WNW 8.1 mph - N/A   Haze
2:00 PM 77.0 °F 42.8 °F 29% 29.92 in 2.8 mi WNW 9.2 mph - N/A   Haze
2:30 PM 78 °F 40 °F 16% 29.92 in 2 mi WNW 9.2 mph - -   Haze
2:30 PM 78.8 °F 39.2 °F 24% 29.92 in 2.8 mi WNW 9.2 mph - N/A   Haze
3:00 PM 78.8 °F 39.2 °F 24% 29.92 in 2.8 mi WNW 9.2 mph - N/A   Haze
3:30 PM 78.8 °F 42.8 °F 28% 29.92 in 2.8 mi WNW 6.9 mph - N/A   Haze
4:00 PM 77.0 °F 44.6 °F 32% 29.92 in 2.8 mi West 9.2 mph - N/A   Haze
4:30 PM 75.2 °F 46.4 °F 36% 29.92 in 2.8 mi West 5.8 mph - N/A   Haze
5:00 PM 71.6 °F 48.2 °F 43% 29.89 in 2.5 mi West 4.6 mph - N/A   Haze
5:30 PM 70 °F 47 °F 33% 29.93 in 1 mi WSW 5.8 mph - -   Haze
5:30 PM 69.8 °F 48.2 °F 46% 29.92 in 2.2 mi WSW 5.8 mph - N/A   Haze
8:00 PM 62.6 °F 46.4 °F 55% 29.95 in 1.9 mi WSW 4.6 mph - N/A   Haze
8:30 PM 62.6 °F 44.6 °F 52% 29.95 in 1.9 mi West 8.1 mph - N/A   Haze
9:00 PM 62.6 °F 44.6 °F 52% 29.98 in 1.9 mi West 6.9 mph - N/A   Haze
10:00 PM 60.8 °F 44.6 °F 55% 29.98 in 1.9 mi West 6.9 mph - N/A   Haze
11:00 PM 59.0 °F 44.6 °F 59% 29.98 in 1.9 mi West 3.5 mph - N/A   Haze